| time (UTC) | temp F | wind direction | speed MPH | gust MPH | rain 1hr in | rain 24hr in | rain mn in | humidity % | barometer mb |
| 20260507150336 | 78 | 0.0 | 0.0 | 0.00 | 0.00 | 0.00 | 10 | 1017.1 | |
| 20260507145337 | 77 | 0.0 | 0.0 | 0.00 | 0.00 | 0.00 | 10 | 1017.4 | |
| 20260507144336 | 77 | 0.0 | 0.0 | 0.00 | 0.00 | 0.00 | 10 | 1017.7 | |
| 20260507143336 | 78 | 0.0 | 0.0 | 0.00 | 0.00 | 0.00 | 10 | 1017.3 | |
| 20260507142336 | 76 | 0.0 | 0.0 | 0.00 | 0.00 | 0.00 | 10 | 1017.7 | |
| 20260507141336 | 81 | 0.0 | 0.0 | 0.00 | 0.00 | 0.00 | 10 | 1017.2 | |
| 20260507140336 | 82 | 0.0 | 0.0 | 0.00 | 0.00 | 0.00 | 10 | 1017.0 | |
| 20260507135336 | 80 | 0.0 | 0.0 | 0.00 | 0.00 | 0.00 | 10 | 1017.3 | |
| 20260507134336 | 78 | 0.0 | 0.0 | 0.00 | 0.00 | 0.00 | 10 | 1017.6 | |
| 20260507133336 | 80 | 0.0 | 0.0 | 0.00 | 0.00 | 0.00 | 10 | 1017.3 | |
| 20260507132336 | 85 | 0.0 | 0.0 | 0.00 | 0.00 | 0.00 | 10 | 1017.0 | |
| 20260507131337 | 84 | 0.0 | 0.0 | 0.00 | 0.00 | 0.00 | 10 | 1016.9 | |
| 20260507130336 | 84 | 0.0 | 0.0 | 0.00 | 0.00 | 0.00 | 10 | 1017.3 | |
| 20260507125336 | 79 | 0.0 | 0.0 | 0.00 | 0.00 | 0.00 | 10 | 1017.7 | |
| 20260507124336 | 76 | 0.0 | 0.0 | 0.00 | 0.00 | 0.00 | 10 | 1018.1 | |
| 20260507123336 | 78 | 0.0 | 0.0 | 0.00 | 0.00 | 0.00 | 10 | 1017.9 | |
| 20260507122336 | 79 | 0.0 | 0.0 | 0.00 | 0.00 | 0.00 | 10 | 1017.9 | |
| 20260507121336 | 75 | 0.0 | 0.0 | 0.00 | 0.00 | 0.00 | 10 | 1018.3 | |
| 20260507120336 | 74 | 0.0 | 0.0 | 0.00 | 0.00 | 0.00 | 10 | 1018.5 | |
| 20260507115336 | 79 | 0.0 | 0.0 | 0.00 | 0.00 | 0.00 | 10 | 1018.2 | |
| 20260507114336 | 76 | 0.0 | 0.0 | 0.00 | 0.00 | 0.00 | 10 | 1018.6 | |
| 20260507113336 | 74 | 0.0 | 0.0 | 0.00 | 0.00 | 0.00 | 10 | 1018.9 | |
| 20260507112336 | 74 | 0.0 | 0.0 | 0.00 | 0.00 | 0.00 | 10 | 1019.0 | |
| 20260507111338 | 76 | 0.0 | 0.0 | 0.00 | 0.00 | 0.00 | 10 | 1018.8 | |
| 20260507110336 | 76 | 0.0 | 0.0 | 0.00 | 0.00 | 0.00 | 10 | 1018.6 | |
| 20260507105336 | 76 | 0.0 | 0.0 | 0.00 | 0.00 | 0.00 | 10 | 1018.6 | |
| 20260507104336 | 72 | 0.0 | 0.0 | 0.00 | 0.00 | 0.00 | 10 | 1019.0 | |
| 20260507103336 | 72 | 0.0 | 0.0 | 0.00 | 0.00 | 0.00 | 10 | 1018.9 | |
| 20260507102336 | 72 | 0.0 | 0.0 | 0.00 | 0.00 | 0.00 | 10 | 1018.8 | |
| 20260507101336 | 71 | 0.0 | 0.0 | 0.00 | 0.00 | 0.00 | 10 | 1018.8 | |
| 20260507100336 | 71 | 0.0 | 0.0 | 0.00 | 0.00 | 0.00 | 10 | 1018.9 | |
| 20260507095336 | 70 | 0.0 | 0.0 | 0.00 | 0.00 | 0.00 | 10 | 1018.9 | |
| 20260507094336 | 71 | 0.0 | 0.0 | 0.00 | 0.00 | 0.00 | 10 | 1018.9 | |
| 20260507093336 | 73 | 0.0 | 0.0 | 0.00 | 0.00 | 0.00 | 10 | 1018.6 | |
| 20260507092336 | 73 | 0.0 | 0.0 | 0.00 | 0.00 | 0.00 | 10 | 1018.7 | |
| 20260507091336 | 74 | 0.0 | 0.0 | 0.00 | 0.00 | 0.00 | 10 | 1018.5 | |
| 20260507090336 | 74 | 0.0 | 0.0 | 0.00 | 0.00 | 0.00 | 10 | 1018.4 | |
| 20260507085336 | 75 | 0.0 | 0.0 | 0.00 | 0.00 | 0.00 | 10 | 1018.3 | |
| 20260507084336 | 73 | 0.0 | 0.0 | 0.00 | 0.00 | 0.00 | 10 | 1018.6 | |
| 20260507083336 | 72 | 0.0 | 0.0 | 0.00 | 0.00 | 0.00 | 10 | 1018.9 | |
| 20260507082336 | 71 | 0.0 | 0.0 | 0.00 | 0.00 | 0.00 | 10 | 1018.8 | |
| 20260507081337 | 71 | 0.0 | 0.0 | 0.00 | 0.00 | 0.00 | 10 | 1018.9 | |
| 20260507080336 | 72 | 0.0 | 0.0 | 0.00 | 0.00 | 0.00 | 10 | 1018.5 | |
| 20260507075336 | 71 | 0.0 | 0.0 | 0.00 | 0.00 | 0.00 | 10 | 1018.5 | |
| 20260507074336 | 71 | 0.0 | 0.0 | 0.00 | 0.00 | 0.00 | 10 | 1018.7 | |
| 20260507073336 | 71 | 0.0 | 0.0 | 0.00 | 0.00 | 0.00 | 10 | 1018.5 | |
| 20260507072336 | 68 | 0.0 | 0.0 | 0.00 | 0.00 | 0.00 | 10 | 1018.9 | |
| 20260507071336 | 68 | 0.0 | 0.0 | 0.00 | 0.00 | 0.00 | 10 | 1018.9 | |
| 20260507070336 | 68 | 0.0 | 0.0 | 0.00 | 0.00 | 0.00 | 10 | 1018.9 | |
| 20260507065336 | 68 | 0.0 | 0.0 | 0.00 | 0.00 | 0.00 | 10 | 1019.0 | |
| 20260507064336 | 68 | 0.0 | 0.0 | 0.00 | 0.00 | 0.00 | 10 | 1019.2 | |
| 20260507063336 | 69 | 0.0 | 0.0 | 0.00 | 0.00 | 0.00 | 10 | 1019.0 | |
| 20260507062337 | 68 | 0.0 | 0.0 | 0.00 | 0.00 | 0.00 | 10 | 1018.8 | |
| 20260507061336 | 68 | 0.0 | 0.0 | 0.00 | 0.00 | 0.00 | 10 | 1018.7 | |
| 20260507060336 | 67 | 0.0 | 0.0 | 0.00 | 0.00 | 0.00 | 10 | 1018.7 | |
| 20260507055336 | 66 | 0.0 | 0.0 | 0.00 | 0.00 | 0.00 | 10 | 1018.5 | |
| 20260507054336 | 66 | 0.0 | 0.0 | 0.00 | 0.00 | 0.00 | 10 | 1018.5 | |
| 20260507053336 | 65 | 0.0 | 0.0 | 0.00 | 0.00 | 0.00 | 10 | 1019.4 | |
| 20260507052336 | 63 | 0.0 | 0.0 | 0.00 | 0.00 | 0.00 | 10 | 1019.5 | |
| 20260507051336 | 62 | 0.0 | 0.0 | 0.00 | 0.00 | 0.00 | 10 | 1019.3 | |
| 20260507050336 | 62 | 0.0 | 0.0 | 0.00 | 0.00 | 0.00 | 10 | 1019.2 | |
| 20260507045336 | 60 | 0.0 | 0.0 | 0.00 | 0.00 | 0.00 | 10 | 1019.2 | |
| 20260507044337 | 59 | 0.0 | 0.0 | 0.00 | 0.00 | 0.00 | 10 | 1019.3 | |
| 20260507043336 | 59 | 0.0 | 0.0 | 0.00 | 0.00 | 0.00 | 10 | 1018.9 | |
| 20260507042336 | 58 | 0.0 | 0.0 | 0.00 | 0.00 | 0.00 | 10 | 1019.1 | |
| 20260507041336 | 57 | 0.0 | 0.0 | 0.00 | 0.00 | 0.00 | 10 | 1019.3 | |
| 20260507040336 | 56 | 0.0 | 0.0 | 0.00 | 0.00 | 0.00 | 10 | 1019.2 | |
| 20260507035336 | 56 | 0.0 | 0.0 | 0.00 | 0.00 | 0.00 | 10 | 1019.3 | |
| 20260507034336 | 56 | 0.0 | 0.0 | 0.00 | 0.00 | 0.00 | 10 | 1019.3 | |
| 20260507033337 | 55 | 0.0 | 0.0 | 0.00 | 0.00 | 0.00 | 10 | 1019.3 | |
| 20260507032336 | 55 | 0.0 | 0.0 | 0.00 | 0.00 | 0.00 | 10 | 1019.1 | |
| 20260507031337 | 54 | 0.0 | 0.0 | 0.00 | 0.00 | 0.00 | 10 | 1019.0 | |
| 20260507030336 | 55 | 0.0 | 0.0 | 0.00 | 0.00 | 0.00 | 10 | 1018.8 | |
| 20260507025337 | 55 | 0.0 | 0.0 | 0.00 | 0.00 | 0.00 | 10 | 1018.7 | |
| 20260507024336 | 55 | 0.0 | 0.0 | 0.00 | 0.00 | 0.00 | 10 | 1018.6 | |
| 20260507023336 | 55 | 0.0 | 0.0 | 0.00 | 0.00 | 0.00 | 10 | 1018.4 | |
| 20260507022337 | 55 | 0.0 | 0.0 | 0.00 | 0.00 | 0.00 | 10 | 1018.1 | |
| 20260507021336 | 57 | 0.0 | 0.0 | 0.00 | 0.00 | 0.00 | 10 | 1017.7 | |
| 20260507020337 | 56 | 0.0 | 0.0 | 0.00 | 0.00 | 0.00 | 10 | 1017.9 | |
| 20260507015336 | 56 | 0.0 | 0.0 | 0.00 | 0.00 | 0.00 | 10 | 1017.8 | |
| 20260507014337 | 57 | 0.0 | 0.0 | 0.00 | 0.00 | 0.00 | 10 | 1017.4 | |
| 20260507013337 | 58 | 0.0 | 0.0 | 0.00 | 0.00 | 0.00 | 10 | 1017.3 | |
| 20260507012337 | 56 | 0.0 | 0.0 | 0.00 | 0.00 | 0.00 | 10 | 1017.5 | |
| 20260507011337 | 57 | 0.0 | 0.0 | 0.00 | 0.00 | 0.00 | 10 | 1017.4 | |
| 20260507010338 | 57 | 0.0 | 0.0 | 0.00 | 0.00 | 0.00 | 10 | 1017.2 | |
| 20260507005337 | 57 | 0.0 | 0.0 | 0.00 | 0.00 | 0.00 | 10 | 1017.1 | |
| 20260507004336 | 57 | 0.0 | 0.0 | 0.00 | 0.00 | 0.00 | 10 | 1017.0 | |
| 20260507003338 | 59 | 0.0 | 0.0 | 0.00 | 0.00 | 0.00 | 10 | 1017.0 | |
| 20260507002337 | 58 | 0.0 | 0.0 | 0.00 | 0.00 | 0.00 | 10 | 1017.0 | |
| 20260507001336 | 59 | 0.0 | 0.0 | 0.00 | 0.00 | 0.00 | 10 | 1016.9 | |
| 20260507000337 | 58 | 0.0 | 0.0 | 0.00 | 0.00 | 0.00 | 10 | 1017.0 | |
| 20260506235336 | 60 | 0.0 | 0.0 | 0.00 | 0.00 | 0.00 | 10 | 1016.6 | |
| 20260506234337 | 61 | 0.0 | 0.0 | 0.00 | 0.00 | 0.00 | 10 | 1016.7 | |
| 20260506233336 | 61 | 0.0 | 0.0 | 0.00 | 0.00 | 0.00 | 10 | 1016.9 | |
| 20260506232337 | 61 | 0.0 | 0.0 | 0.00 | 0.00 | 0.00 | 10 | 1017.1 | |
| 20260506231337 | 60 | 0.0 | 0.0 | 0.00 | 0.00 | 0.00 | 10 | 1017.3 | |
| 20260506230337 | 60 | 0.0 | 0.0 | 0.00 | 0.00 | 0.00 | 10 | 1017.1 | |
| 20260506225336 | 60 | 0.0 | 0.0 | 0.00 | 0.00 | 0.00 | 10 | 1016.9 | |
| 20260506224336 | 63 | 0.0 | 0.0 | 0.00 | 0.00 | 0.00 | 10 | 1016.7 | |
| 20260506223336 | 61 | 0.0 | 0.0 | 0.00 | 0.00 | 0.00 | 10 | 1017.0 | |
| 20260506222336 | 59 | 0.0 | 0.0 | 0.00 | 0.00 | 0.00 | 10 | 1017.5 | |
| 20260506221401 | 58 | 0.0 | 0.0 | 0.00 | 0.00 | 0.00 | 10 | 1017.6 | |
| 20260506220336 | 59 | 0.0 | 0.0 | 0.00 | 0.00 | 0.00 | 10 | 1017.3 | |
| 20260506215336 | 61 | 0.0 | 0.0 | 0.00 | 0.00 | 0.00 | 10 | 1017.1 | |
| 20260506214336 | 59 | 0.0 | 0.0 | 0.00 | 0.00 | 0.00 | 10 | 1017.5 | |
| 20260506213336 | 61 | 0.0 | 0.0 | 0.00 | 0.00 | 0.00 | 10 | 1017.0 | |
| 20260506212336 | 62 | 0.0 | 0.0 | 0.00 | 0.00 | 0.00 | 10 | 1016.9 | |
| 20260506211336 | 59 | 0.0 | 0.0 | 0.00 | 0.00 | 0.00 | 10 | 1017.2 | |
| 20260506210336 | 59 | 0.0 | 0.0 | 0.00 | 0.00 | 0.00 | 10 | 1017.0 | |
| 20260506205337 | 62 | 0.0 | 0.0 | 0.00 | 0.00 | 0.00 | 10 | 1016.8 | |
| 20260506204336 | 62 | 0.0 | 0.0 | 0.00 | 0.00 | 0.00 | 10 | 1016.8 | |
| 20260506203337 | 65 | 0.0 | 0.0 | 0.00 | 0.00 | 0.00 | 10 | 1016.5 | |
| 20260506202338 | 64 | 0.0 | 0.0 | 0.00 | 0.00 | 0.00 | 10 | 1016.6 | |
| 20260506201336 | 64 | 0.0 | 0.0 | 0.00 | 0.00 | 0.00 | 10 | 1016.4 | |
| 20260506200336 | 65 | 0.0 | 0.0 | 0.00 | 0.00 | 0.00 | 10 | 1016.3 | |
| 20260506195336 | 65 | 0.0 | 0.0 | 0.00 | 0.00 | 0.00 | 10 | 1016.1 | |
| 20260506194336 | 65 | 0.0 | 0.0 | 0.00 | 0.00 | 0.00 | 10 | 1016.3 | |
| 20260506193336 | 65 | 0.0 | 0.0 | 0.00 | 0.00 | 0.00 | 10 | 1016.2 | |
| 20260506192337 | 65 | 0.0 | 0.0 | 0.00 | 0.00 | 0.00 | 10 | 1016.2 | |
| 20260506191336 | 65 | 0.0 | 0.0 | 0.00 | 0.00 | 0.00 | 10 | 1016.2 | |
| 20260506190336 | 65 | 0.0 | 0.0 | 0.00 | 0.00 | 0.00 | 10 | 1016.0 | |
| 20260506185336 | 66 | 0.0 | 0.0 | 0.00 | 0.00 | 0.00 | 10 | 1015.9 | |
| 20260506184336 | 65 | 0.0 | 0.0 | 0.00 | 0.00 | 0.00 | 10 | 1015.9 | |
| 20260506183336 | 65 | 0.0 | 0.0 | 0.00 | 0.00 | 0.00 | 10 | 1015.8 | |
| 20260506182336 | 64 | 0.0 | 0.0 | 0.00 | 0.00 | 0.00 | 10 | 1015.9 | |
| 20260506181336 | 65 | 0.0 | 0.0 | 0.00 | 0.00 | 0.00 | 10 | 1015.7 | |
| 20260506180336 | 66 | 0.0 | 0.0 | 0.00 | 0.00 | 0.00 | 10 | 1015.4 | |
| 20260506175336 | 65 | 0.0 | 0.0 | 0.00 | 0.00 | 0.00 | 10 | 1015.4 | |
| 20260506174336 | 66 | 0.0 | 0.0 | 0.00 | 0.00 | 0.00 | 10 | 1015.3 | |
| 20260506173336 | 67 | 0.0 | 0.0 | 0.00 | 0.00 | 0.00 | 10 | 1015.1 | |
| 20260506172336 | 67 | 0.0 | 0.0 | 0.00 | 0.00 | 0.00 | 10 | 1015.0 | |
| 20260506171336 | 67 | 0.0 | 0.0 | 0.00 | 0.00 | 0.00 | 10 | 1014.8 | |
| 20260506170336 | 67 | 0.0 | 0.0 | 0.00 | 0.00 | 0.00 | 10 | 1015.0 | |
| 20260506165336 | 68 | 0.0 | 0.0 | 0.00 | 0.00 | 0.00 | 10 | 1015.0 | |
| 20260506164336 | 68 | 0.0 | 0.0 | 0.00 | 0.00 | 0.00 | 10 | 1014.9 | |
| 20260506163336 | 69 | 0.0 | 0.0 | 0.00 | 0.00 | 0.00 | 10 | 1015.0 | |
| 20260506162336 | 71 | 0.0 | 0.0 | 0.00 | 0.00 | 0.00 | 10 | 1014.9 | |
| 20260506161336 | 71 | 0.0 | 0.0 | 0.00 | 0.00 | 0.00 | 10 | 1014.7 | |
| 20260506160336 | 72 | 0.0 | 0.0 | 0.00 | 0.00 | 0.00 | 10 | 1014.6 | |
| 20260506155338 | 73 | 0.0 | 0.0 | 0.00 | 0.00 | 0.00 | 10 | 1014.7 | |
| 20260506154336 | 73 | 0.0 | 0.0 | 0.00 | 0.00 | 0.00 | 10 | 1014.8 | |
| 20260506153336 | 74 | 0.0 | 0.0 | 0.00 | 0.00 | 0.00 | 10 | 1014.8 | |
| 20260506152336 | 76 | 0.0 | 0.0 | 0.00 | 0.00 | 0.00 | 10 | 1014.8 | |
| 20260506151336 | 77 | 0.0 | 0.0 | 0.00 | 0.00 | 0.00 | 10 | 1014.7 |